TimeCDT,TemperatureF,Dew PointF,Humidity,Sea Level PressureIn,VisibilityMPH,Wind Direction,Wind SpeedMPH,Gust SpeedMPH,PrecipitationIn,Events,Conditions,WindDirDegrees,DateUTC
12:15 AM,71.2,68.9,92,29.96,7.0,SSE,3.5,-,N/A,,Clear,160,2013-06-17 05:15:00
12:35 AM,71.8,69.1,91,29.96,7.0,South,3.5,-,N/A,,Clear,170,2013-06-17 05:35:00
12:55 AM,71.6,68.9,91,29.95,7.0,SE,3.5,-,N/A,,Clear,140,2013-06-17 05:55:00
1:15 AM,71.6,68.7,91,29.94,5.0,East,3.5,-,N/A,,Clear,100,2013-06-17 06:15:00
1:35 AM,70.9,68.5,92,29.94,5.0,Calm,Calm,-,N/A,,Clear,0,2013-06-17 06:35:00
1:55 AM,70.7,68.4,92,29.95,5.0,Calm,Calm,-,N/A,,Clear,0,2013-06-17 06:55:00
2:15 AM,70.7,68.4,92,29.95,4.0,Calm,Calm,-,N/A,,Clear,0,2013-06-17 07:15:00
2:35 AM,71.1,69.1,93,29.95,4.0,Calm,Calm,-,N/A,,Clear,0,2013-06-17 07:35:00
2:55 AM,70.9,68.9,93,29.94,4.0,Calm,Calm,-,N/A,,Clear,0,2013-06-17 07:55:00
3:15 AM,70.3,68.2,93,29.94,3.0,Calm,Calm,-,N/A,,Clear,0,2013-06-17 08:15:00
3:35 AM,68.7,66.9,94,29.94,2.0,Calm,Calm,-,N/A,,Clear,0,2013-06-17 08:35:00
3:55 AM,69.4,67.8,95,29.94,0.2,Calm,Calm,-,N/A,Fog,Fog,0,2013-06-17 08:55:00
4:15 AM,69.4,67.8,95,29.95,2.0,Calm,Calm,-,N/A,,Clear,0,2013-06-17 09:15:00
4:35 AM,69.8,68.2,95,29.94,0.2,Calm,Calm,-,N/A,Fog,Fog,0,2013-06-17 09:35:00
4:55 AM,69.3,68.0,96,29.94,0.5,Calm,Calm,-,N/A,Fog,Fog,0,2013-06-17 09:55:00
5:15 AM,68.7,67.3,95,29.94,0.2,Calm,Calm,-,N/A,Fog,Fog,0,2013-06-17 10:15:00
5:35 AM,68.9,67.5,95,29.95,1.0,Calm,Calm,-,N/A,,Overcast,0,2013-06-17 10:35:00
5:55 AM,69.8,68.2,95,29.94,0.8,Calm,Calm,-,N/A,,Overcast,0,2013-06-17 10:55:00
6:15 AM,69.8,68.2,95,29.95,0.5,Calm,Calm,-,N/A,Fog,Fog,0,2013-06-17 11:15:00
6:35 AM,70.3,68.9,95,29.96,0.8,Calm,Calm,-,N/A,,Overcast,0,2013-06-17 11:35:00
6:55 AM,70.7,69.3,95,29.96,1.0,Calm,Calm,-,N/A,,Mostly Cloudy,0,2013-06-17 11:55:00
7:15 AM,72.7,71.1,95,29.96,1.5,Calm,Calm,-,N/A,,Mist,0,2013-06-17 12:15:00
7:35 AM,74.3,71.4,91,29.96,2.5,Calm,Calm,-,N/A,,Clear,0,2013-06-17 12:35:00
7:55 AM,76.1,72.0,87,29.96,3.0,Calm,Calm,-,N/A,,Scattered Clouds,0,2013-06-17 12:55:00
8:15 AM,76.8,72.0,85,29.95,4.0,Calm,Calm,-,N/A,,Haze,0,2013-06-17 13:15:00
8:35 AM,79.0,72.3,80,29.95,5.0,Calm,Calm,-,N/A,,Haze,0,2013-06-17 13:35:00
8:55 AM,80.4,73.0,78,29.94,5.0,Calm,Calm,-,N/A,,Haze,0,2013-06-17 13:55:00
9:15 AM,82.0,73.2,75,29.94,7.0,Calm,Calm,-,N/A,,Clear,0,2013-06-17 14:15:00
9:35 AM,82.9,73.2,72,29.94,7.0,Calm,Calm,-,N/A,,Clear,0,2013-06-17 14:35:00
9:55 AM,82.9,72.7,71,29.94,7.0,NE,3.5,-,N/A,,Clear,50,2013-06-17 14:55:00
10:15 AM,84.6,72.3,67,29.94,10.0,NE,3.5,-,N/A,,Clear,40,2013-06-17 15:15:00
10:35 AM,86.9,70.2,57,29.94,10.0,NE,4.6,-,N/A,,Clear,40,2013-06-17 15:35:00
10:55 AM,87.3,69.6,56,29.93,10.0,ENE,3.5,-,N/A,,Clear,70,2013-06-17 15:55:00
11:15 AM,88.7,67.5,49,29.93,10.0,NNE,4.6,-,N/A,,Clear,20,2013-06-17 16:15:00
11:35 AM,88.3,67.3,50,29.94,10.0,Calm,Calm,-,N/A,,Scattered Clouds,0,2013-06-17 16:35:00
11:55 AM,89.6,67.1,47,29.94,10.0,Calm,Calm,-,N/A,,Scattered Clouds,0,2013-06-17 16:55:00
12:15 PM,88.9,67.8,50,29.93,10.0,SE,4.6,-,N/A,,Scattered Clouds,130,2013-06-17 17:15:00
12:35 PM,89.8,68.4,49,29.93,10.0,Calm,Calm,-,N/A,,Clear,0,2013-06-17 17:35:00
12:55 PM,90.3,66.9,46,29.92,10.0,Calm,Calm,-,N/A,,Scattered Clouds,0,2013-06-17 17:55:00
1:15 PM,91.6,64.0,40,29.91,10.0,South,4.6,-,N/A,,Clear,190,2013-06-17 18:15:00
1:35 PM,91.4,62.6,38,29.91,10.0,Calm,Calm,-,N/A,,Scattered Clouds,0,2013-06-17 18:35:00
1:55 PM,89.1,64.2,44,29.89,10.0,Calm,Calm,-,N/A,,Clear,0,2013-06-17 18:55:00
2:15 PM,88.3,65.3,46,29.88,10.0,SE,4.6,-,N/A,,Clear,140,2013-06-17 19:15:00
2:35 PM,86.4,67.6,53,29.88,10.0,SSE,4.6,-,N/A,,Clear,160,2013-06-17 19:35:00
2:55 PM,84.9,68.9,59,29.87,10.0,South,3.5,-,N/A,,Clear,190,2013-06-17 19:55:00
3:15 PM,84.6,69.8,61,29.89,10.0,South,4.6,-,N/A,,Clear,180,2013-06-17 20:15:00
3:35 PM,82.4,70.5,67,29.89,10.0,SW,11.5,-,N/A,Rain-Thunderstorm,Light Thunderstorms and Rain,230,2013-06-17 20:35:00
3:55 PM,72.7,66.4,81,29.89,7.0,SSW,17.3,25.3,0.01,Rain,Light Rain,200,2013-06-17 20:55:00
4:15 PM,71.4,67.5,87,29.89,10.0,South,10.4,-,N/A,Rain,Light Rain,190,2013-06-17 21:15:00
4:35 PM,71.8,67.3,86,29.89,10.0,South,8.1,-,N/A,Rain,Light Rain,180,2013-06-17 21:35:00
4:55 PM,72.1,68.0,87,29.92,10.0,SSE,12.7,17.3,0.01,Rain,Light Rain,150,2013-06-17 21:55:00
5:15 PM,70.9,67.5,89,29.91,10.0,South,12.7,-,0.01,Rain,Light Rain,180,2013-06-17 22:15:00
5:35 PM,69.8,66.4,89,29.90,10.0,South,12.7,-,0.02,Rain,Rain,190,2013-06-17 22:35:00
5:55 PM,69.8,66.6,89,29.93,7.0,Calm,Calm,-,0.03,Rain,Light Rain,0,2013-06-17 22:55:00
6:15 PM,70.2,67.3,91,29.98,5.0,North,16.1,20.7,0.02,Rain,Rain,350,2013-06-17 23:15:00
6:35 PM,70.2,67.3,91,29.98,5.0,North,11.5,20.7,0.07,Rain,Rain,350,2013-06-17 23:35:00
6:55 PM,69.8,67.1,91,29.98,10.0,NNW,6.9,-,0.07,Rain,Light Rain,330,2013-06-17 23:55:00
7:15 PM,69.8,67.3,92,29.97,7.0,NNW,9.2,-,0.01,,Light Drizzle,330,2013-06-18 00:15:00
7:35 PM,69.1,66.4,91,29.97,10.0,NNW,10.4,-,0.01,Rain,Light Rain,330,2013-06-18 00:35:00
7:55 PM,68.0,64.8,89,29.97,10.0,North,10.4,-,0.02,Rain,Rain,350,2013-06-18 00:55:00
8:15 PM,68.0,64.9,90,29.96,10.0,North,6.9,-,0.01,Rain,Light Rain,360,2013-06-18 01:15:00
8:35 PM,68.5,65.8,91,29.94,10.0,NE,3.5,-,0.02,,Light Drizzle,40,2013-06-18 01:35:00
8:55 PM,68.9,66.2,91,29.92,10.0,NNE,3.5,-,0.02,,Light Drizzle,20,2013-06-18 01:55:00
9:15 PM,68.9,66.4,92,29.92,10.0,NNE,3.5,-,N/A,,Light Drizzle,20,2013-06-18 02:15:00
9:35 PM,68.9,65.3,88,29.91,10.0,Calm,Calm,-,N/A,Rain,Light Rain,0,2013-06-18 02:35:00
9:55 PM,68.9,66.2,91,29.91,10.0,Calm,Calm,-,N/A,Rain,Light Rain,0,2013-06-18 02:55:00
10:15 PM,68.7,65.8,90,29.92,10.0,ESE,6.9,-,0.01,Rain,Light Rain,110,2013-06-18 03:15:00
10:35 PM,68.9,64.9,87,29.94,10.0,ESE,11.5,18.4,0.01,Rain,Light Rain,120,2013-06-18 03:35:00
10:55 PM,68.4,65.3,90,29.94,10.0,ESE,10.4,-,0.01,Rain,Light Rain,120,2013-06-18 03:55:00
11:15 PM,68.2,65.5,91,29.92,10.0,SE,12.7,-,0.01,Rain,Light Rain,130,2013-06-18 04:15:00
11:35 PM,68.4,65.5,90,29.90,10.0,SE,12.7,-,0.01,,Light Drizzle,140,2013-06-18 04:35:00
11:55 PM,68.5,65.7,90,29.89,10.0,SE,11.5,19.6,0.01,Rain,Light Rain,140,2013-06-18 04:55:00